Location: Azenweiler
(47.8027°N, 9.4096°E)
Time: 23:25:48
(UTC+00:00)

Cosmos 1626 Rocket - Visible Passes

Search period start: 14 March 2026 00:00
Search period end: 24 March 2026 00:00
Orbit: 597 x 623 km, 82.5° (Epoch: 14 March)

Date Brightness Start Highest point End Pass type
(mag) Time Alt. Az. Time Alt. Az. Time Alt. Az.
14 Mar 6.6 02:56:28 10° NNE 02:59:10 16° ENE 03:01:49 10° ESE visible
14 Mar 3.5 04:32:57 10° NNW 04:37:17 61° W 04:41:34 10° S visible
14 Mar 6.8 18:45:55 10° W 18:48:25 15° WNW 18:50:56 10° NNW visible
15 Mar 5.9 03:10:18 10° NNE 03:13:55 24° ENE 03:17:28 10° SE visible
15 Mar 4.1 04:47:40 10° NNW 04:51:41 36° W 04:55:39 10° SSW visible
16 Mar 5.0 03:24:27 10° N 03:28:34 38° ENE 03:32:38 10° SE visible
17 Mar 3.9 03:38:47 10° N 03:43:10 65° E 03:47:27 10° SSE visible
18 Mar 6.7 02:17:20 10° NE 02:19:23 13° ENE 02:21:26 10° E visible
18 Mar 3.4 03:53:17 10° NNW 03:57:40 76° W 04:01:58 10° S visible
18 Mar 6.6 18:05:41 10° WSW 18:08:40 17° WNW 18:11:40 10° NNW visible
19 Mar 6.1 02:30:53 10° NNE 02:34:10 20° ENE 02:37:24 10° ESE visible
19 Mar 3.8 04:07:55 10° NNW 04:12:05 44° W 04:16:11 10° SSW visible
19 Mar 7.1 18:22:09 10° W 18:23:29 11° WNW 18:24:48 10° NW visible
20 Mar 5.3 02:44:56 10° N 02:48:51 32° ENE 02:52:44 10° SE visible
20 Mar 4.4 04:22:46 10° NNW 04:26:26 27° W 04:30:04 10° SW visible
21 Mar 4.3 02:59:12 10° N 03:03:29 52° ENE 03:07:41 10° SSE visible
21 Mar 5.0 04:37:57 10° NW 04:40:43 17° W 04:43:27 10° SW visible
22 Mar 6.7 01:38:36 10° NE 01:39:35 11° ENE 01:40:34 10° ENE visible
22 Mar 3.4 03:13:37 10° N 03:18:01 88° E 03:22:19 10° S visible
23 Mar 6.2 01:51:32 10° NNE 01:54:24 17° ENE 01:57:13 10° ESE visible
23 Mar 3.5 03:28:12 10° NNW 03:32:27 55° W 03:34:53 23° SSW visible
